| time (UTC) | temp F | wind direction | speed knots | gust knots | rain 1hr in | rain 24hr in | rain mn in | humidity % | barometer mb |
| 20260505021522 | 64 | 298 | 7.0 | 13.0 | 0.00 | 0.00 | 0.00 | 21 | 1012.0 |
| 20260505020021 | 64 | 279 | 9.6 | 18.2 | 0.00 | 0.00 | 0.00 | 20 | 1011.9 |
| 20260505014520 | 65 | 281 | 6.1 | 14.8 | 0.00 | 0.00 | 0.00 | 19 | 1011.9 |
| 20260505013018 | 65 | 302 | 7.8 | 14.8 | 0.00 | 0.00 | 0.00 | 18 | 1011.6 |
| 20260505011518 | 66 | 284 | 7.8 | 16.5 | 0.00 | 0.00 | 0.00 | 17 | 1011.5 |
| 20260505010018 | 67 | 298 | 6.1 | 17.4 | 0.00 | 0.00 | 0.00 | 17 | 1011.5 |
| 20260505004515 | 67 | 280 | 8.7 | 20.9 | 0.00 | 0.00 | 0.00 | 16 | 1011.7 |
| 20260505003021 | 68 | 244 | 13.0 | 21.7 | 0.00 | 0.00 | 0.00 | 15 | 1011.8 |
| 20260505001514 | 68 | 249 | 5.2 | 16.5 | 0.00 | 0.00 | 0.00 | 16 | 1011.6 |
| 20260505000013 | 68 | 273 | 7.8 | 16.5 | 0.00 | 0.00 | 0.00 | 16 | 1011.9 |
| 20260504234511 | 69 | 283 | 8.7 | 15.6 | 0.00 | 0.00 | 0.00 | 16 | 1011.9 |
| 20260504233011 | 69 | 280 | 6.1 | 13.9 | 0.00 | 0.00 | 0.00 | 17 | 1011.9 |
| 20260504231510 | 71 | 250 | 6.1 | 17.4 | 0.00 | 0.00 | 0.00 | 17 | 1011.9 |
| 20260504230008 | 71 | 251 | 5.2 | 16.5 | 0.00 | 0.00 | 0.00 | 17 | 1012.0 |
| 20260504224506 | 71 | 257 | 7.8 | 15.6 | 0.00 | 0.00 | 0.00 | 16 | 1012.3 |
| 20260504223005 | 71 | 252 | 5.2 | 17.4 | 0.00 | 0.00 | 0.00 | 17 | 1012.4 |
| 20260504221504 | 71 | 248 | 5.2 | 19.1 | 0.00 | 0.00 | 0.00 | 17 | 1012.5 |
| 20260504220002 | 71 | 277 | 7.0 | 19.1 | 0.00 | 0.00 | 0.00 | 16 | 1012.8 |
| 20260504214700 | 71 | 243 | 7.0 | 18.2 | 0.00 | 0.00 | 0.00 | 16 | 1012.9 |
| 20260504213059 | 71 | 267 | 7.0 | 14.8 | 0.00 | 0.00 | 0.00 | 15 | 1012.9 |
| 20260504211557 | 70 | 286 | 12.2 | 20.0 | 0.00 | 0.00 | 0.00 | 15 | 1013.1 |
| 20260504210107 | 71 | 314 | 9.6 | 22.6 | 0.00 | 0.00 | 0.00 | 14 | 1013.5 |
| 20260504204652 | 71 | 282 | 10.4 | 18.2 | 0.00 | 0.00 | 0.00 | 16 | 1013.8 |
| 20260504203104 | 71 | 269 | 9.6 | 17.4 | 0.00 | 0.00 | 0.00 | 15 | 1014.0 |
| 20260504201548 | 70 | 236 | 11.3 | 21.7 | 0.00 | 0.00 | 0.00 | 16 | 1014.1 |
| 20260504200047 | 70 | 217 | 7.8 | 16.5 | 0.00 | 0.00 | 0.00 | 16 | 1014.1 |
| 20260504194544 | 69 | 222 | 8.7 | 20.0 | 0.00 | 0.00 | 0.00 | 17 | 1014.2 |
| 20260504193042 | 69 | 247 | 10.4 | 20.9 | 0.00 | 0.00 | 0.00 | 17 | 1014.5 |
| 20260504191543 | 69 | 225 | 12.2 | 19.1 | 0.00 | 0.00 | 0.00 | 18 | 1014.5 |
| 20260504190100 | 68 | 243 | 9.6 | 21.7 | 0.00 | 0.00 | 0.00 | 19 | 1014.5 |
| 20260504184537 | 68 | 266 | 12.2 | 21.7 | 0.00 | 0.00 | 0.00 | 20 | 1014.7 |
| 20260504183035 | 67 | 295 | 7.8 | 22.6 | 0.00 | 0.00 | 0.00 | 22 | 1014.8 |
| 20260504181534 | 67 | 256 | 13.0 | 20.0 | 0.00 | 0.00 | 0.00 | 22 | 1015.0 |
| 20260504180032 | 67 | 256 | 11.3 | 17.4 | 0.00 | 0.00 | 0.00 | 21 | 1015.1 |
| 20260504174528 | 67 | 278 | 9.6 | 16.5 | 0.00 | 0.00 | 0.00 | 22 | 1015.3 |
| 20260504173026 | 66 | 271 | 8.7 | 15.6 | 0.00 | 0.00 | 0.00 | 23 | 1015.3 |
| 20260504171524 | 66 | 217 | 6.1 | 10.4 | 0.00 | 0.00 | 0.00 | 28 | 1015.3 |
| 20260504081558 | 52 | 234 | 0.9 | 2.6 | 0.00 | 0.00 | 0.00 | 58 | 1015.7 |
| 20260504044534 | 55 | 257 | 0.9 | 6.1 | 0.00 | 0.00 | 0.00 | 49 | 1016.3 |
| 20260504043033 | 56 | 236 | 4.3 | 7.8 | 0.00 | 0.00 | 0.00 | 49 | 1016.1 |
| 20260504041532 | 56 | 229 | 6.1 | 8.7 | 0.00 | 0.00 | 0.00 | 49 | 1016.0 |
| 20260504040032 | 56 | 244 | 3.5 | 7.0 | 0.00 | 0.00 | 0.00 | 49 | 1016.0 |
| 20260504034533 | 57 | 223 | 3.5 | 8.7 | 0.00 | 0.00 | 0.00 | 47 | 1015.8 |
| 20260504033035 | 57 | 219 | 6.1 | 12.2 | 0.00 | 0.00 | 0.00 | 45 | 1015.9 |
| 20260504031531 | 57 | 229 | 5.2 | 7.8 | 0.00 | 0.00 | 0.00 | 34 | 1015.8 |
| 20260504030030 | 59 | 242 | 0.9 | 3.5 | 0.00 | 0.00 | 0.00 | 28 | 1015.5 |
| 20260504024529 | 60 | 242 | 3.5 | 7.0 | 0.00 | 0.00 | 0.00 | 28 | 1015.4 |
| 20260504023029 | 60 | 233 | 3.5 | 8.7 | 0.00 | 0.00 | 0.00 | 26 | 1015.3 |